Hettinger, ND

5:59 PM MST on January 23, 2018 (GMT -0700)
Hettinger Municipal

Weather History for KHEI - February, 2014

Change the Weather History Date:

Monday, February 24, 2014

  Actual Average Record
Temperature  
Mean Temperature -1 °F -  
Max Temperature 10 °F 34 °F 55 °F (2005)
Min Temperature -13 °F 12 °F -23 °F (2003)
Degree Days  
Heating Degree Days 66 42  
Month to date heating degree days 1294 1074  
Since 1 July heating degree days 6483 6150  
Moisture  
Dew Point -5 °F    
Average Humidity 75    
Maximum Humidity 87    
Minimum Humidity 57    
Precipitation  
Precipitation 0.01 in 0.01 in 0.10 in (2009)
Month to date precipitation 0.10 0.37  
Year to date precipitation 0.24 0.68  
Sea Level Pressure  
Sea Level Pressure 30.31 in    
Wind  
Wind Speed 13 mph (NNE)    
Max Wind Speed 22 mph    
Max Gust Speed 28 mph    
Visibility 4 miles    
Events Snow    
T = Trace of Precipitation, MM = Missing Value Source: NWS Daily Summary

Daily Weather History Graph

Daily Weather History Graph

Search for Another Location

Airport or City:

Trip Planner

Search our weather history database for the weather conditions in past years. The results will help you decide how hot, cold, wet, or windy it might be!

Date:

Astronomy

Feb. 24, 2014 Rise Set
Actual Time 6:38 AM MST 5:30 PM MST
Civil Twilight 6:08 AM MST 6:00 PM MST
Nautical Twilight 5:33 AM MST 6:35 PM MST
Astronomical Twilight 4:58 AM MST 7:09 PM MST
Moon 2:49 AM MST 12:23 PM MST
Length of Visible Light 11h 52m
Length of Day
10h 51m
Waning Crescent, 27% of the Moon is Illuminated
Feb 24
Waning Crescent
Mar 1
New
Mar 8
First Quarter
Mar 16
Full
Mar 23
Last Quarter

Hourly Weather History & Observations

Time (MST) Temp. Windchill Dew Point Humidity Pressure Visibility Wind Dir Wind Speed Gust Speed Precip Events Conditions
12:53 AM 3.9 °F -13.7 °F -2.0 °F 76% 30.35 in 3.0 mi East 13.8 mph - 0.00 in Snow Light Snow
1:21 AM 3.0 °F -14.1 °F -2.0 °F 80% 30.19 in 2.5 mi East 12.7 mph - 0.00 in Snow Light Snow
1:31 AM 3.0 °F -15.5 °F -2.0 °F 80% 30.18 in 3.0 mi ENE 15.0 mph - 0.00 in Snow Light Snow
1:53 AM 3.0 °F -15.5 °F -2.0 °F 80% 30.34 in 3.0 mi ENE 15.0 mph - 0.00 in Snow Light Snow
2:17 AM 3.0 °F -14.8 °F -2.0 °F 80% 30.17 in 2.0 mi ENE 13.8 mph - 0.00 in Snow Light Snow
2:24 AM 3.0 °F -13.3 °F -2.0 °F 80% 30.16 in 1.8 mi ENE 11.5 mph - 0.00 in Snow Light Snow
2:35 AM 3.0 °F -15.5 °F -2.0 °F 80% 30.16 in 2.5 mi ENE 15.0 mph - 0.00 in Snow Light Snow
2:45 AM 3.0 °F -14.1 °F -2.0 °F 80% 30.16 in 3.0 mi ENE 12.7 mph - 0.00 in Snow Light Snow
2:53 AM 3.0 °F -14.8 °F -2.0 °F 80% 30.32 in 2.0 mi ENE 13.8 mph - 0.00 in Snow Light Snow
3:03 AM 3.0 °F -13.3 °F -2.0 °F 80% 30.15 in 2.0 mi East 11.5 mph - 0.00 in Snow Light Snow
3:13 AM 3.0 °F -13.3 °F -2.0 °F 80% 30.16 in 3.0 mi East 11.5 mph - 0.00 in Snow Light Snow
3:42 AM 3.0 °F -14.1 °F -2.9 °F 76% 30.14 in 2.5 mi ENE 12.7 mph - 0.00 in Snow Light Snow
3:50 AM 3.2 °F -13.9 °F -2.2 °F 78% 30.15 in 3.0 mi ENE 12.7 mph - 0.00 in Snow Light Snow
3:53 AM 3.0 °F -14.1 °F -2.9 °F 76% 30.31 in 2.5 mi ENE 12.7 mph - 0.00 in Snow Light Snow
4:02 AM 3.0 °F -14.1 °F -2.9 °F 76% 30.15 in 3.0 mi East 12.7 mph - 0.00 in Snow Light Snow
4:09 AM 3.0 °F -13.3 °F -2.9 °F 76% 30.14 in 2.0 mi East 11.5 mph - 0.00 in Snow Light Snow
4:34 AM 1.9 °F -16.2 °F -2.9 °F 80% 30.14 in 2.5 mi East 13.8 mph - 0.00 in Snow Light Snow
4:41 AM 1.9 °F -16.9 °F -4.0 °F 76% 30.15 in 3.0 mi East 15.0 mph - 0.00 in Snow Light Snow
4:43 AM 1.9 °F -16.2 °F -4.0 °F 76% 30.14 in 2.5 mi ENE 13.8 mph - 0.00 in Snow Light Snow
4:53 AM 1.9 °F -16.2 °F -2.9 °F 80% 30.32 in 2.0 mi ENE 13.8 mph - 0.00 in Snow Light Snow
5:43 AM 1.0 °F -15.8 °F -4.0 °F 79% 30.14 in 2.5 mi ENE 11.5 mph - 0.00 in Snow Light Snow
5:53 AM 1.0 °F -18.0 °F -4.0 °F 79% 30.31 in 2.5 mi ENE 15.0 mph - 0.00 in Snow Light Snow
6:04 AM 1.0 °F -18.0 °F -4.0 °F 79% 30.14 in 2.0 mi ENE 15.0 mph - 0.00 in Snow Light Snow
6:53 AM 1.0 °F -16.6 °F -5.1 °F 75% 30.33 in 1.0 mi ENE 12.7 mph - 0.00 in Snow Light Snow
7:53 AM -0.0 °F -20.1 °F -5.1 °F 79% 30.36 in 1.0 mi NE 16.1 mph - 0.00 in Snow Light Snow
8:04 AM -0.0 °F -20.1 °F -6.0 °F 76% 30.18 in 0.8 mi NE 16.1 mph - 0.00 in Snow Light Snow
8:19 AM 1.0 °F -16.6 °F -5.1 °F 75% 30.20 in 1.2 mi NE 12.7 mph - 0.00 in Snow Light Snow
8:41 AM 1.0 °F -17.3 °F -5.1 °F 75% 30.21 in 0.8 mi NE 13.8 mph - 0.00 in Snow Light Snow
8:53 AM 1.0 °F -17.3 °F -5.1 °F 75% 30.40 in 1.2 mi NE 13.8 mph - 0.00 in Snow Light Snow
9:14 AM 1.0 °F -16.6 °F -6.0 °F 72% 30.23 in 0.8 mi NE 12.7 mph - 0.00 in Snow Light Snow
9:40 AM 1.0 °F -18.7 °F -5.1 °F 75% 30.23 in 1.0 mi NE 16.1 mph - 0.00 in Snow Light Snow
9:53 AM 1.9 °F -18.1 °F -6.0 °F 69% 30.42 in 1.0 mi NNE 17.3 mph - 0.00 in Snow Light Snow
10:53 AM 3.0 °F -15.5 °F -4.0 °F 73% 30.46 in 1.5 mi North 15.0 mph - 0.00 in Snow Light Snow
11:23 AM 1.9 °F -16.9 °F -5.1 °F 72% 30.28 in 1.2 mi North 15.0 mph - 0.00 in Snow Light Snow
11:48 AM 3.2 °F -13.9 °F -4.0 °F 72% 30.28 in 1.0 mi North 12.7 mph - 0.01 in Snow Light Snow
11:53 AM 3.9 °F -11.3 °F -2.9 °F 73% 30.47 in 1.0 mi North 10.4 mph - 0.01 in Snow Light Snow
12:11 PM 5.0 °F -13.0 °F -2.9 °F 70% 30.28 in 3.0 mi North 15.0 mph - 0.00 in Snow Light Snow
12:40 PM 5.0 °F -11.6 °F -4.0 °F 66% 30.29 in 6.0 mi North 12.7 mph 21.9 mph 0.00 in   Haze
12:53 PM 6.1 °F -9.5 °F -2.9 °F 67% 30.48 in 5.0 mi North 11.5 mph - 0.00 in   Haze
1:07 PM 7.0 °F -10.4 °F -2.0 °F 67% 30.29 in 4.0 mi NNW 15.0 mph 21.9 mph N/A   Haze
1:22 PM 7.0 °F -11.6 °F -2.0 °F 67% 30.29 in 6.0 mi NNW 17.3 mph - 0.00 in   Haze
1:34 PM 6.1 °F -10.9 °F -2.9 °F 67% 30.29 in 4.0 mi NNW 13.8 mph - 0.00 in Snow Light Snow
1:53 PM 7.0 °F -11.0 °F -2.0 °F 67% 30.49 in 10.0 mi NNW 16.1 mph - 0.00 in   Overcast
2:53 PM 8.1 °F -9.6 °F -2.9 °F 61% 30.49 in 10.0 mi WNW 16.1 mph 20.7 mph N/A   Mostly Cloudy
3:53 PM 8.1 °F -10.7 °F -4.0 °F 58% 30.50 in 10.0 mi WNW 18.4 mph - N/A   Mostly Cloudy
4:02 PM 7.0 °F -11.0 °F -4.0 °F 61% 30.32 in 10.0 mi WNW 16.1 mph - N/A   Scattered Clouds
4:53 PM 5.0 °F -14.7 °F -5.1 °F 63% 30.52 in 10.0 mi WNW 18.4 mph - N/A   Clear
5:53 PM -0.0 °F -16.3 °F -7.1 °F 72% 30.55 in 10.0 mi WNW 10.4 mph - N/A   Clear
6:53 PM -5.1 °F -20.4 °F -11.0 °F 76% 30.56 in 10.0 mi WNW 8.1 mph - N/A   Clear
7:53 PM -6.0 °F -23.6 °F -11.0 °F 79% 30.56 in 10.0 mi WNW 10.4 mph - N/A   Clear
8:53 PM -9.9 °F -21.5 °F -15.0 °F 78% 30.56 in 10.0 mi WNW 4.6 mph - N/A   Clear
9:53 PM -11.0 °F -26.2 °F -15.0 °F 83% 30.55 in 10.0 mi WNW 6.9 mph - N/A   Clear
10:53 PM -11.0 °F -20.4 °F -16.1 °F 78% 30.54 in 10.0 mi NW 3.5 mph - N/A   Clear
11:53 PM -8.0 °F -25.0 °F -13.0 °F 79% 30.53 in 10.0 mi West 9.2 mph - N/A   Clear